www.pogodaiklimat.ru

Погода и климат >> Архив погоды >> Россия >> Краснодарский край >> Кропоткин


ПОГОДА в Кропоткине

  • Прогноз погоды в Кропоткине
  • Монитор погоды в Кропоткине

АРХИВ ПОГОДЫ в Кропоткине

Время (UTC), дата Ветер
(напр.,м/с)
 
Видим.   Явления Облачность Т
(С)
Тd
(С)
f
(%)
Тe
(С)
Тes
(С)
Комфортность P
(гПа)
Po
(гПа)
Тmin
(С)
Tmax
(С)
R
(мм)
R24
(мм)
S
(см)
09 16.07 Ю 1 20 км в посл. час ливневой дождь 10/4 600 м
[Cb cap Ac As]
+21.6 +16.7 74 +26 +29 душно 1006.1 993.9
12 16.07 Ю 3 20 км {гроза, снег} 8/8 600 м
[Cb cap]
+24.7 +15.9 58 +28 +30 душно 1005.4 993.3
15 16.07 ЮЗ 2
{10}
20 км {ливн. осадки} 6/6 600 м
[Cb cap]
+23.0 +14.1 57 +26 +27 жарко 1006.9 994.7 +24.7 25
18 16.07 ЮЗ 2 20 км {ливн. осадки} ясно +19.9 +15.1 74 +23 +23 комфорт 1009.1 996.8
21 16.07 ЮЗ 1 20 км 4/4 1000 м
[Sc]
+18.3 +15.6 84 +20 +20 1009.5 997.1
00 17.07 ЮЗ 1 20 км ясно +16.3 +14.7 90 +17 +17 1009.5 997.0
03 17.07 Ю 1 20 км 4/4 600 м
[Sc]
+15.9 +14.3 90 +17 +17 1009.9 997.5 +15.1
06 17.07 ЮЗ 1 20 км 1/1 600 м
[Sc]
+22.5 +16.0 67 +27 +38 душно 1009.4 997.2
09 17.07 З 1 20 км 10/5 1000 м
[Cu med, cong Ci]
+26.0 +14.9 50 +29 +37 душно 1008.0 996.0
12 17.07 С 2 20 км 10/8 1000 м
[Cu med, cong Ci fib]
+29.7 +11.3 32 +30 +32 жарко 1007.1 995.2
15 17.07 ЮВ 1 20 км 3/3 1000 м
[Cu med, cong]
+28.3 +10.7 33 +29 +30 жарко 1006.6 994.6 +30.3
18 17.07 СЗ 1 20 км 10/0
[Ac lent Ci sp]
+22.5 +15.3 64 +26 +26 жарко 1006.9 994.7
21 17.07 С 2 20 км 6/0
[Ac As]
+22.3 +14.1 60 +26 +26 жарко 1006.7 994.5
00 18.07 СВ 2 20 км 4/0
[Ac trans]
+21.7 +13.0 58 +24 +24 комфорт 1006.1 993.9
03 18.07 С 1 20 км 10/0
[Ac As]
+20.7 +13.4 63 +24 +25 комфорт 1006.5 994.3 +20.2
06 18.07 Ю 1 20 км 10/10 600 м
[Cb cap]
+22.8 +14.6 60 +26 +26 жарко 1007.0 994.8
09 18.07 С 1 20 км {ливн. осадки} 10/8 600 м
[Cb cap Ac As]
+22.8 +16.7 68 +27 +29 душно 1008.3 996.1
12 18.07 СВ 2 20 км {ливн. осадки} 10/10 600 м
[Cb cap]
+22.3 +17.6 75 +27 +27 душно 1008.7 996.6
15 18.07 СВ 2 20 км 6/3 600 м
[Cb cap Ac trans Ci fib]
+23.0 +17.6 72 +28 +29 душно 1009.3 997.1 +24.0 0.3
18 18.07 В 2 20 км 10/8 600 м
[Cb cap Ac und]
+20.3 +16.7 80 +24 +24 комфорт 1011.1 998.8
21 18.07 В 1 20 км 4/0
[Ac lent Ci fib]
+18.2 +16.5 90 +20 +20 1012.0 999.6
00 19.07 С 2 2000 м дымка 10/10 600 м
[Sc]
+16.9 +15.5 91 +17 +17 1012.6 1000.1
03 19.07 В 1 1000 м дымка {туман} 10/10 300 м
[St]
+17.1 +15.9 93 +18 +18 1013.9 1001.4 +16.7
06 19.07 ЮВ 1 20 км {туман} 9/0
[Ac cast Ci]
+21.9 +16.8 73 +26 +32 душно 1014.4 1002.1
09 19.07 СВ 2 20 км 6/6 600 м
[Cb calv]
+26.8 +15.6 50 +30 +37 душно 1014.1 1002.0
12 19.07 В 2 20 км 10/3 600 м
[Cb cap Ac cuf Ci]
+28.2 +14.4 43 +30 +35 жарко 1013.7 1001.7
15 19.07 СВ 1 20 км 10/0
[Ac As Cs]
+28.3 +13.0 39 +30 +31 жарко 1014.0 1001.9 +29.5
18 19.07 Ю 1 20 км 10/8 600 м
[Cb cap Ac As]
+23.0 +16.9 69 +28 +28 душно 1015.8 1003.6
21 19.07 Ю 1 20 км 9/5 600 м
[Sc Ac lent]
+21.0 +17.2 79 +26 +26 душно 1016.5 1004.2
00 20.07 Ю 1 20 км 10/3 600 м
[Sc Ac trans]
+19.5 +17.0 85 +23 +23 комфорт 1016.8 1004.4
03 20.07 Ю 1 10 км 8/0
[Ac cast]
+18.9 +17.1 89 +21 +22 комфорт 1017.8 1005.3 +18.6
06 20.07 Ю 1 20 км 6/0
[Ac lent]
+23.9 +17.1 66 +28 +34 душно 1017.9 1005.7
09 20.07 ЮВ 2 20 км 8/8 1000 м
[Cu med, cong]
+29.6 +14.4 40 +32 +35 душно 1017.0 1005.0
12 20.07 СВ 3 20 км 8/8 1000 м
[Cu med, cong]
+32.2 +12.4 30 +33 +35 жарко 1016.2 1004.3
15 20.07 В 2 20 км ясно +31.0 +11.4 30 +31 +33 жарко 1015.5 1003.6 +32.5
18 20.07 СВ 2 20 км ясно +26.7 +13.6 44 +29 +29 жарко 1015.8 1003.7
21 20.07 С 2 20 км 4/0
[Ac trans]
+23.2 +15.4 62 +27 +27 душно 1016.2 1004.0
00 21.07 С 2 20 км 6/0
[Ac trans]
+22.3 +14.8 63 +26 +26 жарко 1016.0 1003.7
03 21.07 СВ 2 20 км слаб. ливневой дождь 9/4 600 м
[Cb cap Ac cuf]
+20.6 +16.8 79 +25 +25 комфорт 1015.4 1003.1 +20.3 2
06 21.07 С 2 10 км слаб. ливневой дождь 10/8 300 м
[Cb cap Ac cuf]
+22.3 +18.6 80 +28 +28 душно 1015.7 1003.4
09 21.07 СВ 3 20 км в посл. час ливневой дождь 10/8 600 м
[Cb cap Ac cuf]
+28.2 +17.0 51 +32 +33 душно 1014.2 1002.2
12 21.07 С 4 20 км слаб. ливневой дождь 10/8 600 м
[Cb cap Ac cuf]
+23.6 +18.9 75 +28 +29 душно 1013.9 1001.7
15 21.07 С 5-11
{13}
10 км слаб. ливневой дождь 10/10 300 м
[Cb cap]
+19.2 +16.6 85 +21 +21 комфорт 1014.9 1002.5 +30.3 5
18 21.07 С 3
{16}
20 км в посл. час ливневой дождь {гроза} 10/10 600 м
[Cb cap]
+19.0 +15.8 82 +21 +21 комфорт 1016.0 1003.5
21 21.07 В 2 20 км слаб. ливневой дождь {гроза} 10/10 300 м
[Cb cap]
+17.8 +16.5 92 +18 +18 1016.8 1004.3
00 22.07 З 1 20 км в посл. час ливневой дождь {гроза} 9/9 600 м
[Cb cap]
+17.8 +16.4 92 +19 +19 1016.9 1004.5
03 22.07 С 2 20 км 4/4 600 м
[Sc]
+18.4 +16.8 90 +20 +20 1017.6 1005.1 +17.7 19
06 22.07 СВ 3 20 км 6/4 600 м
[Cb cap Ac trans]
+22.6 +16.2 67 +27 +31 душно 1016.9 1004.6
09 22.07 СВ 3 20 км 8/6 600 м
[Cu hum Ac trans]
+26.1 +16.2 54 +29 +34 жарко 1016.0 1003.9
12 22.07 СВ 3 20 км 6/6 600 м
[Cb cap]
+28.0 +14.2 43 +30 +34 жарко 1015.4 1003.3
15 22.07 ЮВ 2 20 км 4/4 600 м
[Cu hum]
+27.3 +14.7 46 +30 +31 душно 1014.9 1002.8 +28.4
18 22.07 Ю 1 20 км ясно +22.1 +16.1 69 +26 +26 душно 1015.4 1003.1
21 22.07 штиль 0 20 км ясно +18.9 +16.2 84 +20 +20 1015.2 1002.8
00 23.07 СЗ 1 20 км ясно +17.1 +15.6 91 +18 +18 1014.2 1001.7
03 23.07 штиль 0 20 км 9/8 600 м
[Sc Ac lent]
+18.1 +16.5 90 +18 +18 1013.7 1001.3 +17.0
06 23.07 ЮВ 2 20 км 8/0
[Ac cast]
+23.0 +16.5 67 +28 +32 душно 1012.8 1000.6

 

Местоположение метеостанции Кропоткин (Краснодарский край, Россия): широта 45.43 долгота 40.57 высота над уровнем моря 106 м.

В архиве по умолчанию представлена погода в Кропоткине за последнюю неделю. Архивные данные за месяц целиком и за предыдущие месяцы, начиная с января 2011 года, Вы можете получить, выбрав интересующий диапазон дат из раскрывающегося списка и нажав кнопку "Ввод!".


*Определитесь, кто Вы:
робот инопланетянин человек

Внимание! Время в таблицах - всемирное. Для получения местного времени необходимо прибавить поправку, которая равна 3 ч.

Смотрите также архив погоды в соседних городах и на ближайших метеорологических станциях:

Погода в Новоалександровске (Ставропольский край, Россия) (50 км)
Погода в Тихорецке (Краснодарский край, Россия) (60 км)
Погода в Дондуковской (Адыгея, Россия) (66 км)
Погода в Армавире (Краснодарский край, Россия) (66 км)
Погода в Усть-Лабинске (Краснодарский край, Россия) (69 км)
Погода в Белой Глине (Краснодарский край, Россия) (76 км)
Погода в Красногвардейском (Ставропольский край, Россия) (84 км)
Погода в Кореновске (Краснодарский край, Россия) (85 км)
Погода в Лабинске (Краснодарский край, Россия) (86 км)
Погода в Даховской (Адыгея, Россия) (86 км)

Пояснения к столбцам:

Ветер - указаны скорость ветра в м/с - средняя за 10 мин, порывы в срок и между сроками (в фигурных скобках) и направление, откуда дует ветер: С - северный, СВ - северо-восточный, В - восточный, ЮВ - юго-восточный, Ю - южный, ЮЗ - юго-западный, З - западный, СЗ - северо-западный.
Видимость - горизонтальная дальность видимости в метрах или километрах. При видимости от 1 до 10 км при отсутствии осадков обычно наблюдается дымка, при ухудшении видимости до 1 км и менее - туман. В сухую погоду видимость может ухудшаться дымом, пылью или мглою.
Явления - указаны атмосферные явления, наблюдавшиеся в срок или в последний час перед сроком; фигурными скобками обозначены явления, наблюдавшиеся между сроками (за 1-3 часа до срока); квадратными скобками обозначены град или гололедные отложения с указанием их диаметра в мм.
Облачность - указаны через наклонную черту общая и нижняя облачность в баллах и высота нижней границы облаков в метрах; квадратными скобками обозначены формы облаков: Ci - перистые, Cs - перисто-слоистые, Cc - перисто-кучевые, Ac - высококучевые, As - высокослоистые, Sc - слоисто-кучевые, Ns - слоисто-дождевые, Cu - кучевые, Cb - кучево-дождевые. Подробнее классификацию облаков см. в Атласе облаков (PDF).
T - Температура воздуха - температура, измеренная на высоте 2 м над землей.
Td - Температура точки росы - температура, при понижении до которой содержащийся в воздухе водяной пар достигнет насыщения.
f - Относительная влажность воздуха - влажноcть воздуха, измеренная на высоте 2 м над землей.
Te - Эффективная температура - температура, которую ощущает одетый по сезону человек в тени. Характеристика душности погоды. При расчете учитывается влияние влажности воздуха и скорости ветра на теплоощущения человека.
Tes - Эффективная температура на солнце - температура, которую ощущает человек, с поправкой на солнечный нагрев. Характеристика знойности погоды. Зависит от высоты солнца над горизонтом, облачности и скорости ветра. Ночью, в пасмурную погоду, а также при ветре 12 м/с и более поправка равна нулю.
P - Атмосферное давление - приведенное к уровню моря атмосферное давление.
Po - Атмосферное давление - измеренное на уровне метеостанции атмосферное давление.
Tmin - Минимальная температура - минимум температуры воздуха на высоте 2 м над землей.
Tmax - Максимальная температура - максимум температуры воздуха на высоте 2 м над землей.
R - Количество осадков - Количество выпавших осадков за период времени, мм. При наведении курсора мыши на число - период времени, за который выпало указанное количество осадков.
R24 - Количество осадков - Количество выпавших осадков за 24 часа, мм.
S - Снежный покров - Высота снежного покрова, см. При наведении курсора мыши на число - состояние снежного покрова и степень покрытия местности в баллах.